sat.trackr.live / text

‹ back to catalog

STARLINK-35793

NORAD 67179 · 2025-303S

PAYLOAD ACTIVE UNKNOWN

§ Identity

Operator
Country
US
Launch date
2025-12-17
Launch site
AFETR
Launch vehicle
Mass (kg)
RCS (m²)

Purposes: comms

External: N2YO · Heavens-Above · Gunter

§ Orbital elements

Epoch: 2026-09-20T03:12:55.389024Z

Period
94.27 min
Inclination
43.0014°
Eccentricity
0.0000583
Mean motion
15.27589967 rev/d
Perigee alt
482.6 km
Apogee alt
483.4 km
Semi-major
6,861.2 km
B*
5.5198e-4
RAAN
292.5284°
Arg perigee
276.8539°
Mean anomaly
83.2246°
Rev number
4,247

§ Raw data

STARLINK-357931 67179U 25303S   26263.13397441  .00014963  00000+0  55198-3 0  99972 67179  43.0014 292.5284 0000583 276.8539  83.2246 15.27589967 42473

JSON: /api/v1/satellites/67179 · /tle

For live sub-satellite position, see the globe view (requires WebGL).

§ Visibility from observer

Set your observer location to see the next 7 days of passes ≥ 10°. The values pass through the URL so the page stays shareable.

No JS? Fill the form by hand. The geolocation button needs JavaScript.